Location: Unspecified
(49.2170°N, 0.0000°E)
Time: 21:57:49
(UTC+00:00)

Tiros 1 - Visible Passes

Search period start: 19 January 2021 00:00
Search period end: 29 January 2021 00:00
Orbit: 630 x 663 km, 48.4° (Epoch: 18 January)

Date Brightness Start Highest point End Pass type
(mag) Time Alt. Az. Time Alt. Az. Time Alt. Az.
19 Jan 9.2 19:10:38 10° SSW 19:12:08 16° S 19:12:08 16° S visible
20 Jan 9.3 17:57:58 10° SE 17:58:35 10° SE 17:59:12 10° SE visible
20 Jan 9.0 19:35:34 10° SW 19:37:23 21° SSW 19:37:23 21° SSW visible
21 Jan 8.6 18:20:38 10° S 18:24:02 20° SE 18:24:53 19° SE visible
21 Jan 9.3 20:01:04 10° WSW 20:02:33 20° SW 20:02:33 20° SW visible
22 Jan 7.9 18:45:28 10° SW 18:49:40 35° SSE 18:50:00 35° SE visible
22 Jan 9.9 20:26:55 10° WSW 20:27:40 15° WSW 20:27:40 15° WSW visible
23 Jan 8.9 17:30:39 10° S 17:33:55 19° SE 17:37:12 10° E visible
23 Jan 7.5 19:10:56 10° WSW 19:15:03 52° S 19:15:03 52° S visible
24 Jan 8.1 17:55:23 10° SSW 17:59:32 33° SSE 18:02:24 17° E visible
24 Jan 8.0 19:36:45 10° WSW 19:40:04 46° WSW 19:40:04 46° WSW visible
25 Jan 7.5 18:20:48 10° SW 18:25:19 52° SSE 18:27:22 29° E visible
25 Jan 8.9 20:02:43 10° W 20:05:02 29° W 20:05:02 29° W visible
26 Jan 7.1 18:46:35 10° WSW 18:51:13 72° SSE 18:52:19 50° ESE visible
26 Jan 9.6 20:28:43 10° W 20:29:59 18° W 20:29:59 18° W visible
27 Jan 7.6 17:30:40 10° SW 17:35:10 50° SSE 17:39:35 10° E visible
27 Jan 7.0 19:12:32 10° W 19:17:12 82° S 19:17:15 82° SSE visible
27 Jan 10.2 20:54:43 10° W 20:54:55 11° W 20:54:55 11° W visible
28 Jan 7.2 17:56:25 10° WSW 18:01:03 70° SSE 18:04:31 17° E visible
28 Jan 7.7 19:38:33 10° W 19:42:11 54° W 19:42:11 54° W visible
